Погода в Янцзяне

Китай     19°00′39″N   110°22′44″E
темп.,
°C
ветер,
м/с
пор.,
м/с
влажн.,
%
обл.,
%
осадки,
мм/ч
давл.,
гПа
погр.,
м
11 мая, вт
вт1123:00+27ююз510864 0.0 1009562
02:00+26ююз510887 0.0 1007576
05:00+26ююз511877 0.0 1006672
08:00+29ююз7117416 0.0 1008870
11:00+32ю79614 0.0 1008997
14:00+32ю89590 0.0 1006991
17:00+30ю710685 0.0 1005714
20:00+28ююз611835 0.0 1006675
12 мая, ср
ср1223:00+27ююз510865 0.0 1008584
02:00+27ююз510887 0.0 1006598
05:00+27ююз511866 0.0 1006609
08:00+29ююз6107617 0.0 1008763
11:00+32ю79625 0.0 1008995
14:00+32ю79585 0.0 1006915
17:00+30ю710715 0.0 1005754
20:00+28ю610850 0.0 1006697
13 мая, чт
чт1323:00+28ююз59875 0.0 1007710
02:00+27ююз59897 0.0 1006638
05:00+27ююз5108999 0.0 1006679
08:00+29ююз597882 0.1 1008817
11:00+31ю696999 0.0 10081032
14:00+32ю796629 0.0 10061001
17:00+31ю697230 0.0 1005891
20:00+28ю59865 0.0 1006660
14 мая, пт
пт1423:00+28ююз48895 0.0 1007546
02:00+27ю49907 0.1 1006585
05:00+28ю59875 0.1 1006752
08:00+29ю59773 0.1 1007931
11:00+31ююв79681 0.0 10071075
14:00+31ююв78684 0.0 10061093
17:00+30ю68710 0.0 1005926
20:00+28ю48834 0.0 1006651
15 мая, сб
сб1523:00+28ю58865 0.0 1008698
02:00+27ю59879 0.0 1006688
05:00+27ю59875 0.1 1006684
08:00+29ююз697947 0.3 1008882
11:00+31ю796445 0.0 10081052
14:00+32ююв786386 0.0 10061049
17:00+30ю68695 0.0 1005866
20:00+28ю59823 0.0 1006625